Poplar Bluff, MO

8:58 AM CST on December 09, 2019 (GMT -0600)
Poplar Bluff Municipal

Weather History for KPOF - November, 2019

Change the Weather History Date:

Thursday, November 14, 2019

  Actual Average Record
Temperature  
Mean Temperature 38 °F 48 °F  
Max Temperature 51 °F 58 °F 79 °F (1931)
Min Temperature 24 °F 38 °F 12 °F (1940)
Degree Days  
Heating Degree Days 28 17  
Month to date heating degree days 353 201  
Since 1 July heating degree days 605 454  
Cooling Degree Days 0 0  
Month to date cooling degree days 0 0  
Year to date cooling degree days 1830 1561  
Moisture  
Dew Point 26 °F    
Average Humidity 69    
Maximum Humidity 92    
Minimum Humidity 38    
Precipitation  
Precipitation 0.00 in 0.18 in 2.12 in (1957)
Month to date precipitation 2.89 2.46  
Year to date precipitation 63.62 41.67  
Sea Level Pressure  
Sea Level Pressure 30.31 in    
Wind  
Wind Speed 1 mph ()    
Max Wind Speed 12 mph    
Max Gust Speed 15 mph    
Visibility 10.0 miles    
Events      
T = Trace of Precipitation, MM = Missing Value Source: Averaged Metar Reports

Daily Weather History Graph

Daily Weather History Graph

Search for Another Location

Airport or City:

Astronomy

Nov. 14, 2019 Rise Set
Actual Time 6:38 AM CST 4:52 PM CST
Civil Twilight 6:10 AM CST 5:20 PM CST
Nautical Twilight 5:39 AM CST 5:51 PM CST
Astronomical Twilight 5:08 AM CST 6:22 PM CST
Moon 6:40 PM CST (11/14) 8:32 AM CST (11/14)
Length of Visible Light 11h 09m
Length of Day
10h 14m
Waning Gibbous, 95% of the Moon is Illuminated
Nov 14
Waning Gibbous
Nov 19
Last Quarter
Nov 26
New
Dec 4
First Quarter
Dec 11
Full

Hourly Weather History & Observations

Time (CST) Temp. Windchill Dew Point Humidity Pressure Visibility Wind Dir Wind Speed Gust Speed Precip Events Conditions
1:53 AM 27.0 °F - 23.0 °F 85% 30.22 in 10.0 mi Calm Calm - N/A   Mostly Cloudy
2:53 AM 28.9 °F - 24.1 °F 82% 30.23 in 10.0 mi Calm Calm - N/A   Overcast
3:53 AM 27.0 °F - 23.0 °F 85% 30.23 in 10.0 mi Calm Calm - N/A   Clear
4:53 AM 26.1 °F - 23.0 °F 88% 30.25 in 10.0 mi Calm Calm - N/A   Clear
5:53 AM 24.1 °F - 21.9 °F 91% 30.25 in 10.0 mi Calm Calm - N/A   Clear
6:53 AM 25.0 °F - 21.9 °F 88% 30.26 in 10.0 mi Calm Calm - N/A   Clear
7:53 AM 28.9 °F - 25.0 °F 85% 30.28 in 10.0 mi Calm Calm - N/A   Clear
8:53 AM 34.0 °F - 24.1 °F 67% 30.30 in 10.0 mi Calm Calm - N/A   Clear
9:53 AM 39.0 °F - 24.1 °F 55% 30.31 in 10.0 mi Calm Calm - N/A   Clear
10:53 AM 45.0 °F - 24.1 °F 44% 30.32 in 10.0 mi Calm Calm - N/A   Partly Cloudy
11:53 AM 48.0 °F - 25.0 °F 41% 30.30 in 10.0 mi Calm Calm - N/A   Overcast
12:53 PM 48.9 °F - 24.1 °F 38% 30.29 in 10.0 mi NNW 8.1 mph - N/A   Overcast
1:53 PM 50.0 °F - 26.1 °F 39% 30.28 in 10.0 mi Variable 4.6 mph - N/A   Partly Cloudy
2:53 PM 50.0 °F - 28.0 °F 43% 30.28 in 10.0 mi North - - N/A   Clear
3:53 PM 50.0 °F - 27.0 °F 41% 30.30 in 10.0 mi NNE 4.6 mph - N/A   Clear
4:53 PM 46.0 °F - 28.9 °F 51% 30.32 in 10.0 mi Calm Calm - N/A   Clear
5:53 PM 37.9 °F - 30.9 °F 76% 30.33 in 9.0 mi Calm Calm - N/A   Clear
6:53 PM 39.9 °F 35.1 °F 28.9 °F 65% 30.36 in 10.0 mi NE 6.9 mph - N/A   Clear
7:53 PM 34.0 °F 31.0 °F 28.9 °F 82% 30.37 in 10.0 mi NE 3.5 mph - N/A   Clear
8:53 PM 33.1 °F 30.0 °F 27.0 °F 78% 30.38 in 10.0 mi North 3.5 mph - N/A   Clear
9:53 PM 30.9 °F - 28.0 °F 89% 30.40 in 10.0 mi Calm Calm - N/A   Clear
10:53 PM 30.0 °F - 26.1 °F 85% 30.41 in 10.0 mi Calm Calm - N/A   Clear
11:53 PM 28.9 °F - 26.1 °F 89% 30.41 in 10.0 mi Calm Calm - N/A   Clear